Weather History for Duluth Sky Harbor, MN

Change the Weather History Date:

Monday, June 3, 2013

  Actual Average Record
Temperature  
Mean Temperature 48 °F -  
Max Temperature 53 °F 63 °F 94 °F (1948)
Min Temperature 42 °F 42 °F 29 °F (1962)
Degree Days  
Heating Degree Days 18    
Moisture  
Dew Point 39 °F    
Average Humidity 72    
Maximum Humidity 87    
Minimum Humidity 58    
Precipitation  
Precipitation 0.00 in - - ()
Sea Level Pressure  
Sea Level Pressure 30.08 in    
Wind  
Wind Speed 4 mph (ENE)    
Max Wind Speed 9 mph    
Max Gust Speed -    
Visibility 10 miles    
Events      
Averages and records for this station are not official NWS values.
T = Trace of Precipitation, MM = Missing Value Source: NWS Daily Summary

Daily Weather History Graph

Daily Weather History Graph

Search for Another Location

Airport:

Trip Planner

Search our weather history database for the weather conditions in past years. The results will help you decide how hot, cold, wet, or windy it might be!

Date:

Astronomy

Jun. 03, 2013 Rise Set
Actual Time 5:16 AM CDT 8:56 PM CDT
Civil Twilight 4:38 AM CDT 9:34 PM CDT
Nautical Twilight 3:46 AM CDT 10:26 PM CDT
Astronomical Twilight 2:36 AM CDT 11:38 PM CDT
Moon 2:31 AM CDT (6/3) 4:13 PM CDT (6/3)
Length of Visible Light 16h 56m
Length of Day
15h 39m
Waning Crescent, 22% of the Moon is Illuminated
Jun 3
Waning Crescent
Jun 8
New
Jun 16
First Quarter
Jun 23
Full
Jun 29
Last Quarter

Hourly Weather History & Observations

Time (CDT) Temp. Windchill Dew Point Humidity Pressure Visibility Wind Dir Wind Speed Gust Speed Precip Events Conditions
12:13 AM 46.4 °F 43.5 °F 39.2 °F 76% 30.04 in 10.0 mi East 5.8 mph - N/A   Clear
12:33 AM 46.4 °F 43.5 °F 39.2 °F 76% 30.04 in 10.0 mi East 5.8 mph - N/A   Clear
12:54 AM 44.6 °F 42.2 °F 39.2 °F 81% 30.04 in 10.0 mi East 4.6 mph - N/A   Clear
1:13 AM 44.6 °F 43.1 °F 39.2 °F 81% 30.04 in 10.0 mi East 3.5 mph - N/A   Clear
1:33 AM 46.4 °F - 41.0 °F 81% 30.04 in 10.0 mi Calm Calm - N/A   Clear
1:54 AM 46.4 °F - 39.2 °F 76% 30.04 in 10.0 mi Calm Calm - N/A   Clear
2:13 AM 46.4 °F - 41.0 °F 81% 30.04 in 10.0 mi Calm Calm - N/A   Clear
2:33 AM 46.4 °F - 41.0 °F 81% 30.04 in 10.0 mi Calm Calm - N/A   Clear
2:53 AM 46.4 °F - 41.0 °F 81% 30.04 in 10.0 mi Calm Calm - N/A   Clear
3:13 AM 44.6 °F - 41.0 °F 87% 30.04 in 10.0 mi Calm Calm - N/A   Clear
3:34 AM 46.4 °F - 41.0 °F 81% 30.04 in 10.0 mi Calm Calm - N/A   Clear
3:53 AM 44.6 °F - 39.2 °F 81% 30.04 in 10.0 mi Calm Calm - N/A   Clear
4:13 AM 44.6 °F - 39.2 °F 81% 30.05 in 10.0 mi Calm Calm - N/A   Clear
4:34 AM 44.6 °F - 39.2 °F 81% 30.05 in 10.0 mi Calm Calm - N/A   Clear
4:53 AM 44.6 °F 40.7 °F 39.2 °F 81% 30.06 in 10.0 mi ENE 6.9 mph - N/A   Clear
5:13 AM 42.8 °F 38.6 °F 39.2 °F 87% 30.07 in 10.0 mi ENE 6.9 mph - N/A   Clear
5:34 AM 42.8 °F 38.0 °F 37.4 °F 81% 30.07 in 10.0 mi NE 8.1 mph - N/A   Clear
5:53 AM 42.8 °F 38.6 °F 37.4 °F 81% 30.08 in 10.0 mi NE 6.9 mph - N/A   Clear
6:13 AM 42.8 °F 38.6 °F 37.4 °F 81% 30.08 in 10.0 mi NE 6.9 mph - N/A   Clear
6:34 AM 44.6 °F 42.2 °F 37.4 °F 76% 30.08 in 10.0 mi NE 4.6 mph - N/A   Clear
6:53 AM 44.6 °F 40.7 °F 37.4 °F 76% 30.08 in 10.0 mi NE 6.9 mph - N/A   Clear
7:13 AM 44.6 °F 40.7 °F 37.4 °F 76% 30.09 in 10.0 mi NE 6.9 mph - N/A   Clear
7:34 AM 44.6 °F 42.2 °F 37.4 °F 76% 30.09 in 10.0 mi ENE 4.6 mph - N/A   Clear
7:53 AM 44.6 °F 40.2 °F 37.4 °F 76% 30.10 in 10.0 mi ENE 8.1 mph - N/A   Clear
8:14 AM 46.4 °F 44.3 °F 37.4 °F 71% 30.11 in 10.0 mi East 4.6 mph - N/A   Clear
8:34 AM 46.4 °F 43.5 °F 37.4 °F 71% 30.11 in 10.0 mi East 5.8 mph - N/A   Clear
8:53 AM 46.4 °F 42.4 °F 37.4 °F 71% 30.11 in 10.0 mi East 8.1 mph - N/A   Clear
9:14 AM 46.4 °F 41.9 °F 37.4 °F 71% 30.11 in 10.0 mi East 9.2 mph - N/A   Clear
9:34 AM 46.4 °F 42.4 °F 37.4 °F 71% 30.12 in 10.0 mi ENE 8.1 mph - N/A   Clear
9:53 AM 46.4 °F 41.9 °F 37.4 °F 71% 30.12 in 10.0 mi ENE 9.2 mph - N/A   Clear
10:14 AM 46.4 °F 42.9 °F 37.4 °F 71% 30.13 in 10.0 mi ENE 6.9 mph - N/A   Clear
10:34 AM 46.4 °F 42.4 °F 37.4 °F 71% 30.12 in 10.0 mi ENE 8.1 mph - N/A   Clear
10:53 AM 48.2 °F - 37.4 °F 66% 30.12 in 10.0 mi ENE 6.9 mph - N/A   Clear
11:14 AM 48.2 °F - 37.4 °F 66% 30.12 in 10.0 mi East 5.8 mph - N/A   Clear
11:34 AM 48.2 °F - 37.4 °F 66% 30.12 in 10.0 mi ENE 5.8 mph - N/A   Clear
11:53 AM 48.2 °F - 37.4 °F 66% 30.13 in 10.0 mi East 6.9 mph - N/A   Clear
12:14 PM 50.0 °F - 37.4 °F 62% 30.12 in 10.0 mi East 6.9 mph - N/A   Clear
12:33 PM 48.2 °F - 39.2 °F 71% 30.11 in 10.0 mi ENE 5.8 mph - N/A   Clear
12:53 PM 48.2 °F - 39.2 °F 71% 30.11 in 10.0 mi NE 4.6 mph - N/A   Clear
1:13 PM 48.2 °F - 39.2 °F 71% 30.10 in 10.0 mi NNE 5.8 mph - N/A   Clear
1:33 PM 48.2 °F - 39.2 °F 71% 30.10 in 10.0 mi North 4.6 mph - N/A   Clear
1:54 PM 48.2 °F - 37.4 °F 66% 30.10 in 10.0 mi North 5.8 mph - N/A   Clear
2:13 PM 50.0 °F - 37.4 °F 62% 30.10 in 10.0 mi North 4.6 mph - N/A   Clear
2:33 PM 50.0 °F - 37.4 °F 62% 30.10 in 10.0 mi North 4.6 mph - N/A   Clear
2:54 PM 50.0 °F - 39.2 °F 66% 30.10 in 7.0 mi North 4.6 mph - N/A   Clear
3:13 PM 51.8 °F - 39.2 °F 62% 30.09 in 10.0 mi NE 6.9 mph - N/A   Unknown
3:33 PM 53.6 °F - 39.2 °F 58% 30.07 in 10.0 mi ENE 5.8 mph - N/A   Clear
3:54 PM 51.8 °F - 39.2 °F 62% 30.07 in 10.0 mi NNE 4.6 mph - N/A   Clear
4:13 PM 51.8 °F - 39.2 °F 62% 30.07 in 10.0 mi ENE 4.6 mph - N/A   Clear
4:33 PM 53.6 °F - 41.0 °F 62% 30.07 in 10.0 mi ENE 6.9 mph - N/A   Clear
4:54 PM 51.8 °F - 39.2 °F 62% 30.07 in 10.0 mi East 3.5 mph - N/A   Clear
5:13 PM 51.8 °F - 39.2 °F 62% 30.06 in 10.0 mi ENE 6.9 mph - N/A   Clear
5:34 PM 50.0 °F - 39.2 °F 66% 30.06 in 10.0 mi ENE 4.6 mph - N/A   Clear
5:54 PM 50.0 °F - 39.2 °F 66% 30.06 in 10.0 mi Calm Calm - N/A   Clear
6:13 PM 48.2 °F - 39.2 °F 71% 30.05 in 10.0 mi Calm Calm - N/A   Clear
6:34 PM 48.2 °F - 39.2 °F 71% 30.04 in 10.0 mi ENE 4.6 mph - N/A   Clear
6:54 PM 48.2 °F - 39.2 °F 71% 30.05 in 10.0 mi NE 3.5 mph - N/A   Clear
7:13 PM 48.2 °F - 39.2 °F 71% 30.05 in 10.0 mi East 5.8 mph - N/A   Clear
7:34 PM 48.2 °F - 39.2 °F 71% 30.06 in 10.0 mi East 5.8 mph - N/A   Clear
7:54 PM 48.2 °F - 39.2 °F 71% 30.08 in 10.0 mi East 5.8 mph - N/A   Clear
8:13 PM 48.2 °F - 39.2 °F 71% 30.09 in 10.0 mi ENE 4.6 mph - N/A   Clear
8:34 PM 48.2 °F - 37.4 °F 66% 30.10 in 10.0 mi ENE 4.6 mph - N/A   Clear
8:53 PM 48.2 °F - 39.2 °F 71% 30.10 in 10.0 mi North 4.6 mph - N/A   Clear
9:14 PM 46.4 °F 45.2 °F 37.4 °F 71% 30.11 in 10.0 mi North 3.5 mph - N/A   Clear
9:34 PM 46.4 °F - 37.4 °F 71% 30.11 in 10.0 mi Calm Calm - N/A   Scattered Clouds
9:53 PM 46.4 °F 42.9 °F 39.2 °F 76% 30.11 in 10.0 mi NE 6.9 mph - N/A   Scattered Clouds
10:14 PM 48.2 °F - 39.2 °F 71% 30.11 in 10.0 mi NNE 8.1 mph - N/A   Scattered Clouds
10:34 PM 48.2 °F - 41.0 °F 76% 30.12 in 10.0 mi North 4.6 mph - N/A   Scattered Clouds
10:53 PM 46.4 °F 45.2 °F 39.2 °F 76% 30.12 in 10.0 mi East 3.5 mph - N/A   Mostly Cloudy
11:14 PM 48.2 °F - 39.2 °F 71% 30.12 in 10.0 mi ESE 3.5 mph - N/A   Scattered Clouds
11:34 PM 48.2 °F - 41.0 °F 76% 30.11 in 10.0 mi ENE 4.6 mph - N/A   Mostly Cloudy
11:53 PM 48.2 °F - 39.2 °F 71% 30.12 in 10.0 mi East 3.5 mph - N/A   Scattered Clouds